Rochester, NH

7:41 AM EDT on May 23, 2017 (GMT -0400)
Skyhaven

Weather History for KDAW - April, 2014

Change the Weather History Date:

Tuesday, April 1, 2014

  Actual Average (KPSM) Record (KPSM)
Temperature  
Mean Temperature 43 °F -  
Max Temperature 53 °F 47 °F 74 °F (2016)
Min Temperature 34 °F 31 °F 19 °F (1975)
Degree Days  
Heating Degree Days 22    
Moisture  
Dew Point 25 °F    
Average Humidity 53    
Maximum Humidity 73    
Minimum Humidity 34    
Precipitation  
Precipitation 0.00 in - - ()
Sea Level Pressure  
Sea Level Pressure 30.03 in    
Wind  
Wind Speed 9 mph (North)    
Max Wind Speed 15 mph    
Max Gust Speed 23 mph    
Visibility 10 miles    
Events      
Averages and records for this station are not official NWS values.
T = Trace of Precipitation, MM = Missing Value Source: NWS Daily Summary

Daily Weather History Graph

Daily Weather History Graph

Search for Another Location

Airport or City:

Trip Planner

Search our weather history database for the weather conditions in past years. The results will help you decide how hot, cold, wet, or windy it might be!

Date:

Astronomy

Apr. 01, 2014 Rise Set
Actual Time 6:25 AM EDT 7:10 PM EDT
Civil Twilight 5:56 AM EDT 7:39 PM EDT
Nautical Twilight 5:22 AM EDT 8:13 PM EDT
Astronomical Twilight 4:47 AM EDT 8:48 PM EDT
Moon 7:23 AM EDT (4/1) 9:33 PM EDT (4/1)
Length of Visible Light 13h 42m
Length of Day
12h 44m
Waxing Crescent, 4% of the Moon is Illuminated
Apr 1
Waxing Crescent
Apr 7
First Quarter
Apr 15
Full
Apr 22
Last Quarter
Apr 29
New

Hourly Weather History & Observations

Time (EDT) Temp. Windchill Dew Point Humidity Pressure Visibility Wind Dir Wind Speed Gust Speed Precip Events Conditions
12:51 AM 37.0 °F 28.1 °F 25.0 °F 62% 30.00 in 10.0 mi NNW 15.0 mph - N/A   Overcast
1:51 AM 36.0 °F 28.0 °F 25.0 °F 64% 30.00 in 10.0 mi NNW 11.5 mph - N/A   Overcast
2:51 AM 35.1 °F 26.4 °F 25.0 °F 67% 30.00 in 10.0 mi NNW 12.7 mph 19.6 mph N/A   Overcast
3:51 AM 35.1 °F 27.4 °F 24.1 °F 64% 30.00 in 10.0 mi NNW 10.4 mph - N/A   Clear
4:51 AM 35.1 °F 26.9 °F 24.1 °F 64% 30.01 in 10.0 mi NNW 11.5 mph - N/A   Clear
5:51 AM 34.0 °F 26.6 °F 24.1 °F 67% 30.02 in 10.0 mi NNW 9.2 mph - N/A   Clear
6:51 AM 35.1 °F 27.4 °F 24.1 °F 64% 30.02 in 10.0 mi North 10.4 mph - N/A   Partly Cloudy
7:51 AM 37.0 °F 28.5 °F 24.1 °F 59% 30.04 in 10.0 mi North 13.8 mph 23.0 mph N/A   Mostly Cloudy
8:51 AM 39.9 °F 34.5 °F 24.1 °F 53% 30.05 in 10.0 mi North 8.1 mph 18.4 mph N/A   Clear
9:51 AM 42.1 °F 36.1 °F 25.0 °F 51% 30.05 in 10.0 mi North 10.4 mph 20.7 mph N/A   Clear
10:51 AM 45.0 °F 40.6 °F 26.1 °F 48% 30.05 in 10.0 mi North 8.1 mph - N/A   Clear
11:51 AM 46.9 °F - 27.0 °F 46% 30.04 in 10.0 mi Variable 5.8 mph - N/A   Clear
12:51 PM 48.9 °F - 28.0 °F 44% 30.03 in 10.0 mi NNW 8.1 mph - N/A   Clear
1:51 PM 51.1 °F - 27.0 °F 39% 30.01 in 10.0 mi North 8.1 mph - N/A   Clear
2:51 PM 52.0 °F - 27.0 °F 38% 30.01 in 10.0 mi ENE 8.1 mph 17.3 mph N/A   Clear
3:51 PM 51.1 °F - 25.0 °F 36% 30.00 in 10.0 mi Calm Calm - N/A   Clear
4:51 PM 52.0 °F - 24.1 °F 34% 30.00 in 10.0 mi NE 5.8 mph - N/A   Clear
5:51 PM 50.0 °F - 25.0 °F 38% 30.03 in 10.0 mi NNE 4.6 mph - N/A   Clear
6:51 PM 48.0 °F - 24.1 °F 39% 30.04 in 10.0 mi Calm Calm - N/A   Clear
7:51 PM 43.0 °F 41.3 °F 25.0 °F 49% 30.05 in 10.0 mi South 3.5 mph - N/A   Clear
8:51 PM 41.0 °F - 26.1 °F 55% 30.07 in 10.0 mi Calm Calm - N/A   Clear
9:51 PM 37.9 °F - 25.0 °F 60% 30.08 in 10.0 mi Calm Calm - N/A   Clear
10:51 PM 34.0 °F - 26.1 °F 73% 30.07 in 10.0 mi Calm Calm - N/A   Clear
11:51 PM 35.1 °F - 26.1 °F 70% 30.09 in 10.0 mi Calm Calm - N/A   Clear